NOAA 17 DEB, 48184

Orbit data source: Space-Track

NOAA 17 DEB, 48184 is space debris in SSO originally from a launch on Mon, 24 Jun 2002 UTC launched from the Air Force Western Test Range (AFWTR). Debris objects in space refer to the collection of defunct objects orbiting the Earth. Examples of debris include non-operational satellites, rocket bodies, and fragments generated from explosions, collisions, or faulty payload assembly.

Loading next visibility...
Identifier
48184, 2002-032Z
Orbit
SSO
Country
Flag of USUS
Related business
Manufacturer
Unknown
Mission
Spacecraft
Bus & Motor
Unknown
Mass
Unknown
Launch date (UTC)
2002-06-24 (23 years ago)
Launch vehicle
Unknown
Launch site
Air Force Western Test Range (AFWTR)
Object type
Payload
Rocket body
Debris
Shape & HBR
Unknown shape, 0.1 m
Radar Cross Section
Small (<0.1 m²)

Expand to show TLE details & history
Last TLE update: 12 hours ago

TLE from 12 hours ago
0 NOAA 17 DEB
1 48184U 02032Z   25349.91854451  .00005650  00000-0  14933-2 0  9990
2 48184  98.8244 336.2836 0014062  89.1523 271.1280 14.49205005246209
Epoch: 2025-12-15T22:02Z
TLE epoch observation values (Epoch: 2025-12-15T22:02:42.245Z)
Latitude
-0.00007°
Longitude
-79.20262°
Altitude
731.014 km
Speed
7.49 km/s
True Right ascension
22h 25m 08s
True Declination
0° 00' 00"
Sunlit
Object was in daylight at epoch
Visualization orbit readout
Latitude
Unknown
Longitude
Unknown
Altitude
Unknown
Speed
Unknown
Apparent Right ascension
Unknown
Apparent Declination
Unknown
Sunlit
N/A
Visualization observer readout
Local Sidereal Time
08:25:55
Azimuth
Unknown
Elevation
Unknown
Doppler factor
Unknown
Orbital elements
Apogee altitude
735.36 km
Perigee altitude
715.383 km
Semi-major axis
7,103.509 km
Eccentricity
0.00141
Inclination
98.8244°
RAAN
336.2836°
Arg. of periapsis
89.1523°
True anomaly
270.96689°
Mean anomaly
271.128°
Eccentric anomaly
271.04744°
Mean motion
3.62522 °/min
Orbital period
99.3 mins
BSTAR
0.0014933
Loading maneuver chart data...
Computing Atmospheric mass density...
Loading historical data...
Loading historical data...
Loading historical data...
Loading historical data...
Loading historical data...
Loading historical data...
Loading historical data...

Documentation

Showing up to 5 results
|